CW6851 Loxahatchee FL US current weather conditions

sailwx.info

Wind from 130 at 0 knots

Air temperature 17.8° C
Dewpoint 17.8° C

Last reported at 2020-Feb-25 02:08 UTC.
Time now 2020-Feb-25 02:57 UTC

Location: N 26°48' W 080°16'.
View on Google Maps.

See reports from other nearby stations

  
Tides and Currents Weather Stations Pressure Air Temp Water Temp Dewpoint Dewpoint Depression Visibility Wind Speed Wind Dir Waves Ship Positions
date/time (UTC)wind fromknots sea level pressurealtimeterstation pressurevisibilityair tempwater tempwave heightnotes
2020-Feb-25 02:08 130 0 17.8
2020-Feb-25 02:03 130 0 18.3
2020-Feb-25 01:58 130 0 18.3
2020-Feb-25 01:53 130 0 18.3
2020-Feb-25 01:48 130 0 18.3
2020-Feb-25 01:43 130 0 18.3
2020-Feb-25 01:38 130 0 18.9
2020-Feb-25 01:33 130 0 18.9
2020-Feb-25 01:28 130 0 18.9
2020-Feb-25 01:23 130 0 18.9
2020-Feb-25 01:18 130 0 18.9
2020-Feb-25 01:13 130 0 19.4
2020-Feb-25 01:08 130 0 19.4
2020-Feb-25 01:03 130 0 19.4
2020-Feb-25 00:58 130 0 19.4
2020-Feb-25 00:53 130 0 20.0
2020-Feb-25 00:48 130 0 20.0
2020-Feb-25 00:43 130 0 20.0
2020-Feb-25 00:38 130 0 20.6
2020-Feb-25 00:33 130 0 20.6
2020-Feb-25 00:28 130 0 20.6
2020-Feb-25 00:23 130 0 20.6
2020-Feb-25 00:18 130 0 21.1
2020-Feb-25 00:13 130 0 21.1
2020-Feb-25 00:08 130 0 21.1
2020-Feb-25 00:03 130 0 21.1
2020-Feb-24 23:58 130 0 21.7
2020-Feb-24 23:53 130 0 21.7
2020-Feb-24 23:48 130 0 22.2
2020-Feb-24 23:43 130 0 22.2
2020-Feb-24 23:38 130 0 22.2
2020-Feb-24 23:33 130 0 22.2
2020-Feb-24 23:28 130 0 gusting 1 22.8
2020-Feb-24 23:23 130 0 gusting 1 22.8
2020-Feb-24 23:18 130 0 22.8
2020-Feb-24 23:13 130 0 gusting 0 22.8
2020-Feb-24 23:08 129 0 gusting 4 23.3
2020-Feb-24 23:03 130 0 gusting 4 23.3
2020-Feb-24 22:58 131 0 23.3
2020-Feb-24 22:53 131 0 gusting 6 23.3
2020-Feb-24 22:48 131 0 gusting 6 23.3
2020-Feb-24 22:43 120 0 gusting 5 23.3
2020-Feb-24 22:38 144 0 gusting 1 23.3
2020-Feb-24 22:33 147 0 gusting 4 23.9
2020-Feb-24 22:28 153 0 gusting 5 23.9
2020-Feb-24 22:23 172 0 gusting 5 23.9
2020-Feb-24 22:18 158 0 gusting 6 23.9
2020-Feb-24 22:13 174 0 gusting 6 24.4
2020-Feb-24 22:08 137 0 gusting 6 24.4
2020-Feb-24 22:03 152 0 gusting 5 24.4
2020-Feb-24 21:58 157 0 gusting 5 24.4
2020-Feb-24 21:53 188 1 gusting 3 25.0
2020-Feb-24 21:48 187 0 gusting 3 25.0
2020-Feb-24 21:42 188 0 gusting 4 25.0
2020-Feb-24 21:37 194 1 gusting 4 25.0
2020-Feb-24 21:32 193 2 gusting 4 25.0
2020-Feb-24 21:27 191 0 gusting 6 25.0
2020-Feb-24 21:22 192 0 gusting 6 25.6
2020-Feb-24 21:17 180 1 gusting 6 25.6
2020-Feb-24 21:12 177 2 gusting 6 25.6
2020-Feb-24 21:07 175 0 gusting 6 25.6
2020-Feb-24 21:02 173 0 gusting 6 25.6
2020-Feb-24 20:57 187 0 gusting 6 25.6
2020-Feb-24 20:52 171 0 gusting 7 26.1
2020-Feb-24 20:47 166 0 gusting 7 26.1
2020-Feb-24 20:42 205 4 gusting 6 26.1
2020-Feb-24 20:37 210 0 gusting 5 26.1
2020-Feb-24 20:32 167 4 gusting 6 26.1
2020-Feb-24 20:27 197 5 gusting 6 26.1
2020-Feb-24 20:22 175 0 gusting 6 26.1
2020-Feb-24 20:17 182 2 gusting 6 26.1
2020-Feb-24 20:12 144 2 gusting 7 26.1
2020-Feb-24 20:07 157 1 gusting 7 26.1
2020-Feb-24 20:02 192 0 gusting 6 26.1
2020-Feb-24 19:57 220 0 gusting 6 25.6
2020-Feb-24 19:52 195 0 gusting 6 25.6
2020-Feb-24 19:47 198 0 gusting 3 25.0
2020-Feb-24 19:42 198 0 gusting 2 25.0
2020-Feb-24 19:37 209 0 gusting 5 25.0
2020-Feb-24 19:32 182 0 gusting 10 25.6
2020-Feb-24 19:27 168 0 gusting 10 25.6
2020-Feb-24 19:22 207 6 gusting 8 25.6
2020-Feb-24 19:17 124 5 gusting 8 25.0
2020-Feb-24 19:12 143 0 gusting 6 25.6
2020-Feb-24 19:07 138 0 gusting 9 26.1
2020-Feb-24 19:02 098 0 gusting 9 26.7
2020-Feb-24 18:57 146 1 gusting 7 26.7
2020-Feb-24 18:52 162 1 gusting 8 26.7
2020-Feb-24 18:47 183 7 gusting 8 26.1
2020-Feb-24 18:42 210 1 gusting 7 26.1
2020-Feb-24 18:37 196 4 gusting 6 26.1
2020-Feb-24 18:07 198 2 gusting 6 25.6
2020-Feb-24 18:02 165 0 gusting 6 25.0
2020-Feb-24 17:57 202 0 gusting 10 25.6
2020-Feb-24 17:52 148 0 gusting 10 25.6
2020-Feb-24 17:47 119 6 gusting 8 25.6
2020-Feb-24 17:42 149 5 gusting 8 25.0
2020-Feb-24 17:37 211 3 gusting 9 25.0
2020-Feb-24 17:32 140 4 gusting 9 25.0
2020-Feb-24 17:27 161 0 gusting 8 25.0
2020-Feb-24 17:22 184 0 gusting 8 25.0
2020-Feb-24 17:17 158 2 gusting 8 24.4
2020-Feb-24 17:12 153 0 gusting 8 24.4
2020-Feb-24 17:07 153 2 gusting 6 23.9
2020-Feb-24 17:02 105 0 gusting 5 23.9
2020-Feb-24 16:57 044 5 gusting 6 24.4
2020-Feb-24 16:52 150 0 gusting 8 24.4
2020-Feb-24 16:47 098 2 gusting 8 25.0
2020-Feb-24 16:42 109 0 gusting 7 24.4
2020-Feb-24 16:37 201 2 gusting 9 25.0
2020-Feb-24 16:32 146 2 gusting 9 25.0
2020-Feb-24 16:27 165 0 gusting 9 24.4
2020-Feb-24 16:22 174 0 gusting 9 25.0
2020-Feb-24 16:17 131 1 gusting 6 24.4
2020-Feb-24 16:12 183 0 gusting 5 24.4
2020-Feb-24 16:07 163 0 gusting 8 24.4
2020-Feb-24 16:02 120 1 gusting 8 24.4
2020-Feb-24 15:57 198 5 gusting 10 24.4
2020-Feb-24 15:52 208 2 gusting 10 24.4
2020-Feb-24 15:47 144 1 gusting 6 24.4
2020-Feb-24 15:42 171 0 gusting 6 24.4
2020-Feb-24 15:37 122 0 gusting 8 23.9
2020-Feb-24 15:32 197 0 gusting 8 23.9
2020-Feb-24 15:27 128 0 gusting 5 23.9
2020-Feb-24 15:22 118 0 gusting 5 23.3
2020-Feb-24 15:17 175 0 gusting 6 23.3
2020-Feb-24 15:12 134 2 gusting 6 23.9
2020-Feb-24 15:07 181 0 gusting 7 23.9
2020-Feb-24 15:02 140 4 gusting 7 23.3
2020-Feb-24 14:57 142 0 gusting 6 23.3
2020-Feb-24 14:52 180 2 gusting 6 23.3
2020-Feb-24 14:47 169 4 gusting 6 22.8
2020-Feb-24 14:42 139 6 gusting 5 22.2
2020-Feb-24 14:37 138 0 gusting 5 22.2
2020-Feb-24 14:32 138 0 gusting 6 22.2
2020-Feb-24 14:27 138 2 gusting 6 22.2
2020-Feb-24 14:22 123 0 21.7
2020-Feb-24 14:17 123 0 21.1
2020-Feb-24 14:12 123 0 20.6
2020-Feb-24 14:07 123 0 20.0
2020-Feb-24 14:02 123 0 19.4
2020-Feb-24 13:57 123 0 18.9
2020-Feb-24 13:52 123 0 18.9
2020-Feb-24 13:47 123 0 18.3
2020-Feb-24 13:42 123 0 17.8
2020-Feb-24 13:37 123 0 17.2
2020-Feb-24 13:32 123 0 16.7
2020-Feb-24 13:27 123 0 16.7
2020-Feb-24 13:22 123 0 16.7
2020-Feb-24 13:17 123 0 16.1
2020-Feb-24 13:12 123 0 16.1
2020-Feb-24 13:07 123 0 15.6
2020-Feb-24 13:02 123 0 15.6
2020-Feb-24 12:57 123 0 15.0
2020-Feb-24 12:52 123 0 14.4
2020-Feb-24 12:47 123 0 14.4
2020-Feb-24 12:42 123 0 14.4
2020-Feb-24 12:37 123 0 13.9
2020-Feb-24 12:32 123 0 13.9
2020-Feb-24 12:27 123 0 13.9
2020-Feb-24 12:22 123 0 13.9
2020-Feb-24 12:17 123 0 13.3
2020-Feb-24 12:12 123 0 13.3
2020-Feb-24 12:07 123 0 13.3
2020-Feb-24 12:02 123 0 13.3
2020-Feb-24 11:57 123 0 13.3
2020-Feb-24 11:52 123 0 13.3
2020-Feb-24 11:47 123 0 13.9
2020-Feb-24 11:42 123 0 13.9
2020-Feb-24 11:37 123 0 13.9
2020-Feb-24 11:32 123 0 13.9
2020-Feb-24 11:27 123 0 13.9
2020-Feb-24 11:22 123 0 13.9
2020-Feb-24 11:17 123 0 13.9
2020-Feb-24 11:12 123 0 13.9
2020-Feb-24 11:07 123 0 13.9
2020-Feb-24 11:02 123 0 13.9
2020-Feb-24 10:57 123 0 13.9
2020-Feb-24 10:52 123 0 13.9
2020-Feb-24 10:47 123 0 14.4
2020-Feb-24 10:43 123 0 14.4
2020-Feb-24 10:38 123 0 14.4
2020-Feb-24 10:33 123 0 14.4
2020-Feb-24 10:27 123 0 14.4
2020-Feb-24 10:23 123 0 14.4
2020-Feb-24 10:18 123 0 14.4
2020-Feb-24 10:12 123 0 14.4
2020-Feb-24 10:07 123 0 14.4
2020-Feb-24 10:03 123 0 14.4
2020-Feb-24 09:58 123 0 14.4
2020-Feb-24 09:52 123 0 14.4
2020-Feb-24 09:48 123 0 14.4
2020-Feb-24 09:42 123 0 14.4
2020-Feb-24 09:38 123 0 14.4
2020-Feb-24 09:33 123 0 14.4
2020-Feb-24 09:28 123 0 14.4
2020-Feb-24 09:22 123 0 14.4
2020-Feb-24 09:18 123 0 14.4
2020-Feb-24 09:12 123 0 14.4
2020-Feb-24 09:08 123 0 14.4
2020-Feb-24 09:03 123 0 14.4
2020-Feb-24 08:57 123 0 14.4
2020-Feb-24 08:53 123 0 14.4
2020-Feb-24 08:48 123 0 13.9
2020-Feb-24 08:43 123 0 13.9
2020-Feb-24 08:38 123 0 13.9
2020-Feb-24 08:33 123 0 13.9
2020-Feb-24 08:28 123 0 13.9
2020-Feb-24 08:23 123 0 13.9
2020-Feb-24 08:18 123 0 13.9
2020-Feb-24 08:13 123 0 13.9
2020-Feb-24 08:08 123 0 13.9
2020-Feb-24 08:03 123 0 13.9
2020-Feb-24 07:58 123 0 13.9
2020-Feb-24 07:53 123 0 13.9
2020-Feb-24 07:48 123 0 13.9
2020-Feb-24 07:43 123 0 13.9
2020-Feb-24 07:38 123 0 13.9
2020-Feb-24 07:33 123 0 13.9
2020-Feb-24 07:28 123 0 13.9
2020-Feb-24 07:23 123 0 13.9
2020-Feb-24 07:18 123 0 13.9
2020-Feb-24 07:13 123 0 13.9
2020-Feb-24 07:08 123 0 13.9
2020-Feb-24 07:03 123 0 13.9
2020-Feb-24 06:58 123 0 13.9
2020-Feb-24 06:53 123 0 13.9
2020-Feb-24 06:48 123 0 13.9
2020-Feb-24 06:43 123 0 13.9
2020-Feb-24 06:38 123 0 13.9
2020-Feb-24 06:33 123 0 13.9
2020-Feb-24 06:28 123 0 13.9
2020-Feb-24 06:23 123 0 13.9
2020-Feb-24 06:18 123 0 13.9
2020-Feb-24 06:13 123 0 13.9
2020-Feb-24 06:08 123 0 13.9
2020-Feb-24 06:03 123 0 13.9
2020-Feb-24 05:58 123 0 13.9
2020-Feb-24 05:53 123 0 13.9
2020-Feb-24 05:48 123 0 13.9
2020-Feb-24 05:43 123 0 13.9
2020-Feb-24 05:38 123 0 13.9
2020-Feb-24 05:33 123 0 13.9
2020-Feb-24 05:28 123 0 13.9
2020-Feb-24 05:23 123 0 13.9
2020-Feb-24 05:18 123 0 13.9
2020-Feb-24 05:13 123 0 13.9
2020-Feb-24 05:08 123 0 13.9
2020-Feb-24 05:03 123 0 13.9
2020-Feb-24 04:58 123 0 13.9
2020-Feb-24 04:53 123 0 13.9
2020-Feb-24 04:48 123 0 13.9
2020-Feb-24 04:43 123 0 13.9
2020-Feb-24 04:38 123 0 13.9
2020-Feb-24 04:33 123 0 13.9
2020-Feb-24 04:28 123 0 13.9
2020-Feb-24 04:23 123 0 13.9
2020-Feb-24 04:18 123 0 14.4
2020-Feb-24 04:12 123 0 14.4
2020-Feb-24 04:07 123 0 14.4
2020-Feb-24 04:02 123 0 14.4
2020-Feb-24 03:57 123 0 14.4
2020-Feb-24 03:52 123 0 14.4
2020-Feb-24 03:47 123 0 14.4
2020-Feb-24 03:42 123 0 14.4
2020-Feb-24 03:37 123 0 14.4
2020-Feb-24 03:32 123 0 14.4
2020-Feb-24 03:27 123 0 14.4
2020-Feb-24 03:22 123 0 14.4
2020-Feb-24 03:17 123 0 14.4
2020-Feb-24 03:12 123 0 15.0
2020-Feb-24 03:07 123 0 15.0
2020-Feb-24 03:02 123 0 15.0
2020-Feb-24 02:57 123 0 15.0
2020-Feb-24 02:52 123 0 15.0
2020-Feb-24 02:47 123 0 15.0
2020-Feb-24 02:42 123 0 15.0
2020-Feb-24 02:37 123 0 15.0
2020-Feb-24 02:32 123 0 15.0
2020-Feb-24 02:27 123 0 15.6
2020-Feb-24 02:22 123 0 15.6
2020-Feb-24 02:17 123 0 15.6
2020-Feb-24 02:12 123 0 15.6
2020-Feb-24 02:07 123 0 15.6
2020-Feb-24 02:02 123 0 15.6
2020-Feb-24 01:57 123 0 15.6
2020-Feb-24 01:52 123 0 16.1
2020-Feb-24 01:47 123 0 16.1
2020-Feb-24 01:42 123 0 16.1
2020-Feb-24 01:37 123 0 16.1
2020-Feb-24 01:32 123 0 16.1
2020-Feb-24 01:27 123 0 16.1
2020-Feb-24 01:22 123 0 16.7
2020-Feb-24 01:17 123 0 16.7
2020-Feb-24 01:12 123 0 16.7
2020-Feb-24 01:07 123 0 16.7
2020-Feb-24 01:02 123 0 17.2
2020-Feb-24 00:57 123 0 17.2
2020-Feb-24 00:52 123 0 17.2
2020-Feb-24 00:47 123 0 17.2
2020-Feb-24 00:42 123 0 17.8
2020-Feb-24 00:37 123 0 17.8
2020-Feb-24 00:32 123 0 18.3
2020-Feb-24 00:27 123 0 18.3
2020-Feb-24 00:22 123 0 18.3
2020-Feb-24 00:17 123 0 18.9
2020-Feb-24 00:12 123 0 18.9
2020-Feb-24 00:07 123 0 18.9
2020-Feb-24 00:02 123 0 18.9
2020-Feb-23 23:57 123 0 19.4
2020-Feb-23 23:52 123 0 19.4
2020-Feb-23 23:47 123 0 19.4
2020-Feb-23 23:42 123 0 20.0
2020-Feb-23 23:37 123 0 20.0
2020-Feb-23 23:32 123 0 20.0
2020-Feb-23 23:27 123 0 20.0
2020-Feb-23 23:22 123 0 gusting 1 20.0
2020-Feb-23 23:17 123 0 gusting 1 20.6
2020-Feb-23 23:12 123 1 gusting 0 20.6
2020-Feb-23 23:07 123 0 20.6
2020-Feb-23 23:02 123 0 gusting 3 21.1
2020-Feb-23 22:57 123 0 gusting 3 21.1
2020-Feb-23 22:52 124 0 21.1
2020-Feb-23 22:47 124 0 gusting 0 21.7
2020-Feb-23 22:42 124 0 gusting 3 21.7
2020-Feb-23 22:37 124 0 gusting 3 21.7
2020-Feb-23 22:32 123 0 gusting 3 22.2
2020-Feb-23 22:27 123 0 gusting 3 22.2
2020-Feb-23 22:22 123 0 gusting 4 22.2
2020-Feb-23 22:17 127 0 gusting 4 22.2
2020-Feb-23 22:12 120 0 gusting 4 22.2
2020-Feb-23 22:07 125 0 gusting 5 22.2
2020-Feb-23 22:02 144 0 gusting 5 22.2
2020-Feb-23 21:57 053 0 gusting 4 22.2
2020-Feb-23 21:52 034 0 gusting 4 22.2
2020-Feb-23 21:47 057 0 gusting 10 22.8
2020-Feb-23 21:42 057 5 gusting 10 23.3
2020-Feb-23 21:37 058 0 gusting 6 23.3
2020-Feb-23 21:32 098 0 gusting 4 23.9
2020-Feb-23 21:27 097 0 gusting 5 23.9
2020-Feb-23 21:22 092 0 gusting 5 23.9
2020-Feb-23 21:17 113 2 gusting 5 23.9
2020-Feb-23 21:12 131 0 gusting 6 23.9
2020-Feb-23 21:07 133 0 gusting 6 23.9
2020-Feb-23 21:02 032 0 gusting 6 23.9
2020-Feb-23 20:57 034 0 gusting 6 23.9
2020-Feb-23 20:52 119 0 gusting 6 23.9
2020-Feb-23 20:47 117 0 gusting 7 23.9
2020-Feb-23 20:42 152 0 gusting 7 23.9
2020-Feb-23 20:37 088 0 gusting 6 23.9
2020-Feb-23 20:32 149 1 gusting 6 23.9
2020-Feb-23 20:27 037 0 gusting 6 23.9
2020-Feb-23 20:22 098 0 gusting 4 23.3
2020-Feb-23 20:17 098 0 gusting 6 23.3
2020-Feb-23 20:12 115 0 gusting 6 23.3
2020-Feb-23 20:07 109 0 gusting 9 23.9
2020-Feb-23 20:02 094 2 gusting 9 23.9
2020-Feb-23 19:57 048 6 gusting 8 25.0
2020-Feb-23 19:52 033 0 gusting 6 24.4
2020-Feb-23 19:47 054 0 gusting 6 25.0
2020-Feb-23 19:42 130 0 gusting 6 25.0
2020-Feb-23 19:37 063 0 gusting 5 24.4
2020-Feb-23 19:32 042 0 gusting 5 24.4
2020-Feb-23 19:27 128 0 gusting 8 25.0
2020-Feb-23 19:22 121 0 gusting 8 25.0
2020-Feb-23 19:17 034 0 gusting 8 24.4
2020-Feb-23 19:12 018 4 gusting 8 24.4
2020-Feb-23 19:07 072 0 gusting 9 24.4
2020-Feb-23 19:02 056 6 gusting 9 24.4
2020-Feb-23 18:57 035 1 gusting 6 24.4
2020-Feb-23 18:52 074 4 gusting 6 24.4
2020-Feb-23 18:47 065 1 gusting 6 24.4
2020-Feb-23 18:42 050 5 gusting 7 24.4
2020-Feb-23 18:37 096 0 gusting 7 24.4
2020-Feb-23 18:32 079 0 gusting 6 25.0
2020-Feb-23 18:27 085 3 gusting 8 25.0
2020-Feb-23 18:22 069 5 gusting 8 24.4
2020-Feb-23 18:17 065 4 gusting 5 24.4
2020-Feb-23 18:12 059 0 gusting 6 25.0
2020-Feb-23 18:07 035 2 gusting 6 25.0
2020-Feb-23 18:02 086 2 gusting 6 25.0
2020-Feb-23 17:57 082 2 gusting 6 25.0
2020-Feb-23 17:52 094 1 gusting 6 25.0
2020-Feb-23 17:47 087 0 gusting 6 24.4
2020-Feb-23 17:42 065 5 gusting 6 24.4
2020-Feb-23 17:37 046 1 gusting 8 24.4
2020-Feb-23 17:32 110 0 gusting 8 24.4
2020-Feb-23 17:27 037 0 gusting 9 24.4
2020-Feb-23 17:22 040 6 gusting 9 24.4
2020-Feb-23 17:17 119 0 gusting 6 24.4
2020-Feb-23 17:12 085 0 gusting 7 24.4
2020-Feb-23 17:07 080 1 gusting 7 24.4
2020-Feb-23 17:02 048 1 gusting 7 24.4
2020-Feb-23 16:57 106 2 gusting 9 24.4
2020-Feb-23 16:52 136 2 gusting 9 24.4
2020-Feb-23 16:47 085 0 gusting 6 24.4
2020-Feb-23 16:42 049 0 gusting 6 24.4
2020-Feb-23 16:37 046 3 gusting 6 24.4
2020-Feb-23 16:32 030 4 gusting 6 24.4
2020-Feb-23 16:27 067 0 gusting 7 24.4
2020-Feb-23 16:22 076 1 gusting 7 23.9
2020-Feb-23 16:17 038 6 gusting 6 23.9
2020-Feb-23 16:12 005 0 gusting 9 23.3
2020-Feb-23 16:07 053 0 gusting 9 23.3
2020-Feb-23 16:02 036 0 gusting 6 23.3
2020-Feb-23 15:57 019 1 gusting 6 23.3
2020-Feb-23 15:52 094 0 gusting 6 23.3
2020-Feb-23 15:48 105 0 gusting 6 23.3
2020-Feb-23 15:43 075 0 gusting 5 23.3
2020-Feb-23 15:38 087 0 gusting 7 23.3
2020-Feb-23 15:33 090 4 gusting 7 22.8
2020-Feb-23 15:28 050 0 gusting 9 22.8
2020-Feb-23 15:23 057 0 gusting 10 22.2
2020-Feb-23 15:18 144 0 gusting 10 22.2
2020-Feb-23 15:13 005 4 gusting 9 22.2
2020-Feb-23 15:08 155 0 gusting 9 22.2
2020-Feb-23 15:03 032 4 gusting 7 21.7
2020-Feb-23 14:58 046 7 gusting 10 21.7
2020-Feb-23 14:53 032 1 gusting 10 21.1
2020-Feb-23 14:48 039 0 gusting 8 20.6
2020-Feb-23 14:43 044 0 gusting 6 20.0
2020-Feb-23 14:38 076 0 gusting 10 20.0
2020-Feb-23 14:33 053 0 gusting 10 20.0
2020-Feb-23 14:28 083 3 gusting 6 19.4
2020-Feb-23 14:23 011 0 gusting 3 18.9
2020-Feb-23 14:18 011 0 gusting 3 18.9
2020-Feb-23 14:13 011 0 18.9
2020-Feb-23 14:08 011 0 18.3
2020-Feb-23 14:03 011 0 18.3
2020-Feb-23 13:58 011 0 17.8
2020-Feb-23 13:53 011 0 17.2
2020-Feb-23 13:48 011 0 17.2
2020-Feb-23 13:43 011 0 16.7
2020-Feb-23 13:38 011 0 16.7
2020-Feb-23 13:33 011 0 16.7
2020-Feb-23 13:28 011 0 16.1
2020-Feb-23 13:23 011 0 16.1
2020-Feb-23 13:18 011 0 16.1
2020-Feb-23 13:13 011 0 gusting 0 15.6
2020-Feb-23 13:08 011 0 gusting 2 15.6
2020-Feb-23 13:03 011 1 gusting 2 15.6
2020-Feb-23 12:58 011 0 gusting 0 15.6
2020-Feb-23 12:53 036 0 15.0
2020-Feb-23 12:48 036 0 15.0
2020-Feb-23 12:43 036 0 15.0
2020-Feb-23 12:38 036 0 14.4
2020-Feb-23 12:33 036 0 14.4
2020-Feb-23 12:28 036 0 14.4
2020-Feb-23 12:23 036 0 14.4
2020-Feb-23 12:18 036 0 14.4
2020-Feb-23 12:13 036 0 14.4
2020-Feb-23 12:08 036 0 14.4
2020-Feb-23 12:03 036 0 14.4
2020-Feb-23 11:58 036 0 14.4
2020-Feb-23 11:53 036 0 15.0
2020-Feb-23 11:48 036 0 15.0
2020-Feb-23 11:43 036 0 15.0
2020-Feb-23 11:38 036 0 15.0
2020-Feb-23 11:33 036 0 15.0
2020-Feb-23 11:28 036 0 15.0
2020-Feb-23 11:23 036 0 15.0
2020-Feb-23 11:18 036 0 15.0
2020-Feb-23 11:13 036 0 15.0
2020-Feb-23 11:08 036 0 15.0
2020-Feb-23 11:03 036 0 15.0
2020-Feb-23 10:57 036 0 15.6
2020-Feb-23 10:53 036 0 15.6
2020-Feb-23 10:47 036 0 15.6
2020-Feb-23 10:42 036 0 15.6
2020-Feb-23 10:37 036 0 15.6
2020-Feb-23 10:32 036 0 15.6
2020-Feb-23 10:27 036 0 15.6
2020-Feb-23 10:22 036 0 15.6
2020-Feb-23 10:17 036 0 15.6
2020-Feb-23 10:12 036 0 15.6
2020-Feb-23 10:07 036 0 15.6
2020-Feb-23 10:02 036 0 15.6
2020-Feb-23 09:57 036 0 15.6
2020-Feb-23 09:52 036 0 15.6
2020-Feb-23 09:47 036 0 15.6
2020-Feb-23 09:42 036 0 15.6
2020-Feb-23 09:37 036 0 15.6
2020-Feb-23 09:32 036 0 15.6
2020-Feb-23 09:27 036 0 15.6
2020-Feb-23 09:22 036 0 15.6
2020-Feb-23 09:17 036 0 15.6
2020-Feb-23 09:12 036 0 15.6
2020-Feb-23 09:07 036 0 15.6
2020-Feb-23 09:02 036 0 15.6
2020-Feb-23 08:57 036 0 16.1
2020-Feb-23 08:52 036 0 16.1
2020-Feb-23 08:47 036 0 16.1
2020-Feb-23 08:42 036 0 16.1
2020-Feb-23 08:37 036 0 16.1
2020-Feb-23 08:32 036 0 16.1
2020-Feb-23 08:27 036 0 16.1
2020-Feb-23 08:22 036 0 16.1
2020-Feb-23 08:17 036 0 16.1
2020-Feb-23 08:12 036 0 16.1
2020-Feb-23 08:07 036 0 16.1
2020-Feb-23 08:02 036 0 16.1
2020-Feb-23 07:57 036 0 16.7
2020-Feb-23 07:52 036 0 16.7
2020-Feb-23 07:47 036 0 16.7
2020-Feb-23 07:42 036 0 16.7
2020-Feb-23 07:37 036 0 16.7
2020-Feb-23 07:32 036 0 16.7
2020-Feb-23 07:27 036 0 16.7
2020-Feb-23 07:22 036 0 16.7
2020-Feb-23 07:17 036 0 16.7
2020-Feb-23 07:12 036 0 16.7
2020-Feb-23 07:07 036 0 16.7
2020-Feb-23 07:02 036 0 16.7
2020-Feb-23 06:57 036 0 16.7
2020-Feb-23 06:52 036 0 16.7
2020-Feb-23 06:47 036 0 16.7
2020-Feb-23 06:42 036 0 16.7
2020-Feb-23 06:37 036 0 16.7
2020-Feb-23 06:32 036 0 16.7
2020-Feb-23 06:27 036 0 16.7
2020-Feb-23 06:22 036 0 16.7
2020-Feb-23 06:17 036 0 16.7
2020-Feb-23 06:12 036 0 16.7
2020-Feb-23 06:07 036 0 16.7
2020-Feb-23 06:02 036 0 16.7
2020-Feb-23 05:57 036 0 16.7
2020-Feb-23 05:52 036 0 16.7
2020-Feb-23 05:47 036 0 16.7
2020-Feb-23 05:42 036 0 16.7
2020-Feb-23 05:37 036 0 16.7
2020-Feb-23 05:32 036 0 16.7
2020-Feb-23 05:27 036 0 16.7
2020-Feb-23 05:22 036 0 gusting 1 16.7
2020-Feb-23 05:17 036 0 gusting 1 16.7
2020-Feb-23 05:12 036 0 16.7
2020-Feb-23 05:07 036 0 16.7
2020-Feb-23 05:02 036 0 16.7
2020-Feb-23 04:57 036 0 16.1
2020-Feb-23 04:52 036 0 16.1
2020-Feb-23 04:47 036 0 16.1
2020-Feb-23 04:42 036 0 gusting 2 16.1
2020-Feb-23 04:37 036 0 gusting 2 16.1
2020-Feb-23 04:32 036 0 gusting 1 16.1
2020-Feb-23 04:27 036 0 gusting 1 16.1
2020-Feb-23 04:22 036 0 gusting 0 16.1
2020-Feb-23 04:17 036 0 16.1
2020-Feb-23 04:12 036 0 16.1
2020-Feb-23 04:07 036 0 16.1
2020-Feb-23 04:02 036 0 16.1
2020-Feb-23 03:57 036 0 16.1
2020-Feb-23 03:52 036 0 16.1
2020-Feb-23 03:47 036 0 16.1
2020-Feb-23 03:42 036 0 15.6
2020-Feb-23 03:37 036 0 16.1
2020-Feb-23 03:32 036 0 16.1
2020-Feb-23 03:27 036 0 16.1
2020-Feb-23 03:22 036 0 16.1
2020-Feb-23 03:17 036 0 16.1
2020-Feb-23 03:12 036 0 16.1
2020-Feb-23 03:07 036 0 16.1
2020-Feb-23 03:02 036 0 16.1
2020-Feb-23 02:57 036 0 16.1
2020-Feb-23 02:52 036 0 16.7
2020-Feb-23 02:47 036 0 16.7
2020-Feb-23 02:42 036 0 16.7
2020-Feb-23 02:37 036 0 16.7
2020-Feb-23 02:32 036 0 16.7
2020-Feb-23 02:27 036 0 16.7
2020-Feb-23 02:22 036 0 16.7
2020-Feb-23 02:17 036 0 16.7
2020-Feb-23 02:12 036 0 gusting 4 16.7
2020-Feb-23 02:07 036 0 gusting 4 16.7
2020-Feb-23 02:02 036 0 16.7